Вернуться в каталог

SJ-11-07

АктивенНаукаSSO
NORAD 40261·PAYLOAD·🇨🇳 China

Запущен Sep 28, 2014 с Jiuquan Satellite Launch Center

Loading…

Ближайшие Пролёты (ближайшие 24 часа)

TLE

СвежийSource: Space-Track

Эпоха: Sep 14, 2026, 15:32 UTC

1 40261U 14059A   26257.64746198  .00000393  00000-0  84136-4 0  9990
2 40261  97.9864 324.2458 0009591 222.9297 137.1158 14.63809932638001

Отслеживайте SJ-11-07 в реальном времени с AllMySat

Download on the App Store